Terminal Aerodrome Forecast
Issued by NWS Key West, FL

Home | Current Version | Previous Version | Text Only | Print | Product List | Glossary On
Versions: 1 2 3 4 5 6 7 8 9 10 11 12 13 14 15 16 17 18 19 20 21 22 23
000
FTUS42 KKEY 192300
TAFEYW
TAF
KEYW 192320Z 2000/2024 32013G19KT P6SM FEW022 SCT030 BKN040
     FM200600 32009KT P6SM SCT024=

USA.gov is the U.S. government's official web portal to all federal, state and local government web resources and services.